Regional Weather Roundup
Issued by NWS

Home | Current Version | Previous Version | Text Only | Print | Product List | Glossary On
Versions: 1 2 3 4 5 6 7 8 9 10 11 12 13 14 15 16 17 18 19 20 21 22 23 24 25 26 27 28 29 30 31 32 33 34 35 36 37 38 39 40 41 42 43 44 45 46 47 48 49 50
000
ASUS44 KJAN 191710
RWRMS

MISSISSIPPI HOURLY WEATHER ROUNDUP
NATIONAL WEATHER SERVICE JACKSON MS
1100 AM CST THU JAN 19 2017

NOTE: "FAIR: INDICATES FEW OR NO CLOUDS BELOW 12,000 FEET WITH NO
SIGNIFICANT WEATHER AND/OR OBSTRUCTIONS TO VISIBILITY.

MSZ001>002-007>008-010>013-018>021-025>028-034>036-191800-
NORTHWEST MISSISSIPPI

CITY           SKY/WX    TMP DP  RH WIND       PRES   REMARKS
BATESVILLE     RAIN      64  62  94 SE9       29.88F
CLARKSDALE     CLOUDY    61  61 100 VRB7      29.87F
CLEVELAND      CLOUDY    59  59 100 CALM      29.86F
GREENWOOD      RAIN      66  63  90 S10       29.87F
GREENVILLE     LGT RAIN  59  56  89 CALM      29.86F
OLIVE BRANCH   LGT RAIN N/A N/A N/A S7        29.86S
OXFORD         LGT RAIN  59  57  94 SE15G21   29.89F
TUNICA         CLOUDY    55  54  94 CALM      29.87F
WINONA         LGT RAIN  64  64 100 S5        29.90F
$$

MSZ003>006-009-014>017-022>024-029>033-037>039-191800-
NORTHEAST MISSISSIPPI

CITY           SKY/WX    TMP DP  RH WIND       PRES   REMARKS
COLUMBUS AFB   LGT RAIN  66  66 100 S8        29.93F FOG
CORINTH        LGT RAIN  64  63  94 S7        29.90F
STARKVILLE     RAIN      64  64 100 S3        29.94F
TUPELO         LGT RAIN  63  62  97 CALM      29.93S FOG
$$

MSZ040-058-191800-
CENTRAL MISSISSIPPI

CITY           SKY/WX    TMP DP  RH WIND       PRES   REMARKS
JACKSON INTL   LGT RAIN  65  63  93 S6        29.91F
JACKSON HAWKNS LGT RAIN  65  63  93 S6        29.92F FOG
MADISON        FAIR      63  63 100 CALM      29.91F
MERIDIAN KEY   LGT RAIN  70  68  93 S13       29.92F FOG
MERIDIAN NAS   RAIN      68  64  87 SE6       29.92F FOG
RAYMOND        DRIZZLE   64  64 100 SE5       29.91F
VICKSBURG VKS  SUNNY     64  63  94 SE6G12    29.89F
$$

MSZ059>079-191800-
SOUTH MISSISSIPPI

CITY           SKY/WX    TMP DP  RH WIND       PRES   REMARKS
BROOKHAVEN     LGT RAIN  64  63  94 CALM      29.95F
HATTIESBURG    CLOUDY    72  67  84 SW9G18    29.95F
LAUREL         CLOUDY    65  65 100 SW8G21    29.96S
MCCOMB         RAIN      64  61  90 SW5       29.94F FOG
NATCHEZ        CLOUDY    66  63  88 S8        29.92R
PINE BELT      CLOUDY    64  61  88 S9        29.97S
$$

MSZ080>082-191800-
COASTAL MISSISSIPPI

CITY           SKY/WX    TMP DP  RH WIND       PRES   REMARKS
BAY ST LOUIS   CLOUDY    72  66  83 SW8G20    29.96F
BILOXI         FOG       70  66  88 S10       29.96F VSB 3/4
PASCAGOULA     CLOUDY    74  68  81 S13G22    29.98F
GULFPORT       FOG       70  69  97 S10       29.96F VSB 3/4
$$

LAZ007>009-015>016-023>026-191800-
NORTHEAST LOUISIANA

CITY           SKY/WX    TMP DP  RH WIND       PRES   REMARKS
BASTROP        CLOUDY    56  55  97 CALM      29.87F
TALLULAH/VBURG LGT RAIN  64  63  96 SE10      29.90S
VIDALIA        LGT RAIN  66  64  96 SE6       29.94R
$$



USA.gov is the U.S. government's official web portal to all federal, state and local government web resources and services.